Wetterdaten: Donnerstag, 12.02.2015
Datum Zeit Temp. A. Feuchte A. Luftdruck Regen Wind Richtung Richtung Sonnenschein ET UV Solar Taupunkt Windchill Windben Empfang
12.02.2015 00:00 0,0 C 74 % 1026,6 hPa 0,0 l/m 8,3 km/h (2 Bft) O-SO 102 0 min 0,000 mm 0,0 UV-I 0 W/m -4,1 C -1,9 C 11,9 km/h (2 Bft) 0,00 %
12.02.2015 00:15 0,0 C 74 % 1026,5 hPa 0,0 l/m 4,3 km/h (1 Bft) S 172 0 min 0,000 mm 0,0 UV-I 0 W/m -4,1 C 0,0 C 7,9 km/h (2 Bft) 0,00 %
12.02.2015 00:30 -0,1 C 74 % 1026,4 hPa 0,0 l/m 0,7 km/h (0 Bft) S 184 0 min 0,000 mm 0,0 UV-I 0 W/m -4,2 C -0,1 C 4,0 km/h (1 Bft) 0,00 %
12.02.2015 00:45 -0,1 C 75 % 1026,3 hPa 0,0 l/m 0,0 km/h (0 Bft) O-SO 105 0 min 0,000 mm 0,0 UV-I 0 W/m -4,0 C -0,1 C 0,0 km/h (0 Bft) 0,00 %
12.02.2015 01:00 -0,1 C 74 % 1026,3 hPa 0,0 l/m 0,0 km/h (0 Bft) SO 144 0 min 0,000 mm 0,0 UV-I 0 W/m -4,2 C -0,1 C 0,0 km/h (0 Bft) 0,00 %
12.02.2015 01:15 -0,1 C 75 % 1026,3 hPa 0,0 l/m 0,0 km/h (0 Bft) S 182 0 min 0,000 mm 0,0 UV-I 0 W/m -4,0 C -0,1 C 0,0 km/h (0 Bft) 0,00 %
12.02.2015 01:30 -0,2 C 75 % 1026,3 hPa 0,0 l/m 0,0 km/h (0 Bft) S 174 0 min 0,000 mm 0,0 UV-I 0 W/m -4,1 C -0,2 C 0,0 km/h (0 Bft) 0,00 %
12.02.2015 01:45 -0,2 C 76 % 1026,1 hPa 0,0 l/m 0,0 km/h (0 Bft) S 174 0 min 0,000 mm 0,0 UV-I 0 W/m -3,9 C -0,2 C 0,0 km/h (0 Bft) 0,00 %
12.02.2015 02:00 -0,2 C 76 % 1026,1 hPa 0,0 l/m 1,4 km/h (1 Bft) O-SO 107 0 min 0,000 mm 0,0 UV-I 0 W/m -3,9 C -0,2 C 4,0 km/h (1 Bft) 0,00 %
12.02.2015 02:15 -0,2 C 77 % 1026,0 hPa 0,0 l/m 1,4 km/h (1 Bft) SO 143 0 min 0,000 mm 0,0 UV-I 0 W/m -3,7 C -0,2 C 4,0 km/h (1 Bft) 0,00 %
12.02.2015 02:30 -0,2 C 77 % 1025,8 hPa 0,0 l/m 4,0 km/h (1 Bft) S 173 0 min 0,000 mm 0,0 UV-I 0 W/m -3,7 C -0,2 C 7,9 km/h (2 Bft) 0,00 %
12.02.2015 02:45 -0,2 C 77 % 1025,6 hPa 0,0 l/m 5,8 km/h (2 Bft) O 91 0 min 0,000 mm 0,0 UV-I 0 W/m -3,7 C -0,2 C 7,9 km/h (2 Bft) 0,00 %
12.02.2015 03:00 -0,2 C 77 % 1025,6 hPa 0,0 l/m 4,3 km/h (1 Bft) O-SO 107 0 min 0,000 mm 0,0 UV-I 0 W/m -3,7 C -0,2 C 7,9 km/h (2 Bft) 0,00 %
12.02.2015 03:15 -0,3 C 77 % 1025,6 hPa 0,0 l/m 4,3 km/h (1 Bft) SO 127 0 min 0,000 mm 0,0 UV-I 0 W/m -3,8 C -0,3 C 7,9 km/h (2 Bft) 0,00 %
12.02.2015 03:30 -0,3 C 77 % 1025,6 hPa 0,0 l/m 0,4 km/h (0 Bft) S-SO 167 0 min 0,000 mm 0,0 UV-I 0 W/m -3,8 C -0,3 C 4,0 km/h (1 Bft) 0,00 %
12.02.2015 03:45 -0,3 C 78 % 1025,5 hPa 0,0 l/m 6,8 km/h (2 Bft) O-SO 115 0 min 0,000 mm 0,0 UV-I 0 W/m -3,7 C -0,7 C 11,9 km/h (2 Bft) 0,00 %
12.02.2015 04:00 -0,3 C 78 % 1025,4 hPa 0,0 l/m 0,7 km/h (0 Bft) O-SO 109 0 min 0,000 mm 0,0 UV-I 0 W/m -3,7 C -0,3 C 4,0 km/h (1 Bft) 0,00 %
12.02.2015 04:15 -0,3 C 78 % 1025,3 hPa 0,0 l/m 4,3 km/h (1 Bft) O 85 0 min 0,000 mm 0,0 UV-I 0 W/m -3,7 C -0,3 C 7,9 km/h (2 Bft) 0,00 %
12.02.2015 04:30 -0,3 C 79 % 1025,2 hPa 0,0 l/m 4,3 km/h (1 Bft) O 95 0 min 0,000 mm 0,0 UV-I 0 W/m -3,5 C -0,3 C 7,9 km/h (2 Bft) 0,00 %
12.02.2015 04:45 -0,4 C 79 % 1025,2 hPa 0,0 l/m 1,8 km/h (1 Bft) SO 134 0 min 0,000 mm 0,0 UV-I 0 W/m -3,6 C -0,4 C 4,0 km/h (1 Bft) 0,00 %
12.02.2015 05:00 -0,4 C 79 % 1025,2 hPa 0,0 l/m 4,0 km/h (1 Bft) O-SO 111 0 min 0,000 mm 0,0 UV-I 0 W/m -3,6 C -0,4 C 4,0 km/h (1 Bft) 0,00 %
12.02.2015 05:15 -0,4 C 79 % 1025,1 hPa 0,0 l/m 1,4 km/h (1 Bft) O-SO 119 0 min 0,000 mm 0,0 UV-I 0 W/m -3,6 C -0,4 C 4,0 km/h (1 Bft) 0,00 %
12.02.2015 05:30 -0,5 C 79 % 1025,0 hPa 0,0 l/m 0,0 km/h (0 Bft) O 97 0 min 0,000 mm 0,0 UV-I 0 W/m -3,7 C -0,5 C 0,0 km/h (0 Bft) 0,00 %
12.02.2015 05:45 -0,6 C 79 % 1024,9 hPa 0,0 l/m 0,0 km/h (0 Bft) NW 307 0 min 0,000 mm 0,0 UV-I 0 W/m -3,8 C -0,6 C 0,0 km/h (0 Bft) 0,00 %
12.02.2015 06:00 -0,8 C 79 % 1025,2 hPa 0,0 l/m 0,0 km/h (0 Bft) O-SO 112 0 min 0,000 mm 0,0 UV-I 0 W/m -4,0 C -0,8 C 0,0 km/h (0 Bft) 0,00 %
12.02.2015 06:15 -0,8 C 79 % 1025,1 hPa 0,0 l/m 5,4 km/h (1 Bft) O 101 0 min 0,000 mm 0,0 UV-I 0 W/m -4,0 C -0,8 C 11,9 km/h (2 Bft) 0,00 %
12.02.2015 06:30 -0,9 C 79 % 1025,1 hPa 0,0 l/m 0,0 km/h (0 Bft) S-SW 193 0 min 0,000 mm 0,0 UV-I 0 W/m -4,1 C -0,9 C 0,0 km/h (0 Bft) 0,00 %
12.02.2015 06:45 -0,9 C 79 % 1025,3 hPa 0,0 l/m 0,7 km/h (0 Bft) O 90 0 min 0,000 mm 0,0 UV-I 0 W/m -4,1 C -0,9 C 4,0 km/h (1 Bft) 0,00 %
12.02.2015 07:00 -1,0 C 78 % 1025,3 hPa 0,0 l/m 0,0 km/h (0 Bft) O-NO 73 0 min 0,000 mm 0,0 UV-I 0 W/m -4,3 C -1,0 C 0,0 km/h (0 Bft) 0,00 %
12.02.2015 07:15 -1,0 C 78 % 1025,3 hPa 0,0 l/m 0,0 km/h (0 Bft) W-SW 255 0 min 0,000 mm 0,0 UV-I 0 W/m -4,3 C -1,0 C 0,0 km/h (0 Bft) 0,00 %
12.02.2015 07:30 -1,1 C 77 % 1025,5 hPa 0,0 l/m 0,0 km/h (0 Bft) O 82 0 min 0,000 mm 0,0 UV-I 0 W/m -4,6 C -1,1 C 0,0 km/h (0 Bft) 0,00 %
12.02.2015 07:45 -1,1 C 76 % 1025,4 hPa 0,0 l/m 0,0 km/h (0 Bft) S 178 0 min 0,000 mm 0,0 UV-I 1 W/m -4,8 C -1,1 C 0,0 km/h (0 Bft) 0,00 %
12.02.2015 08:00 -1,1 C 76 % 1025,3 hPa 0,0 l/m 0,7 km/h (0 Bft) SO 124 0 min 0,000 mm 0,0 UV-I 7 W/m -4,8 C -1,1 C 4,0 km/h (1 Bft) 0,00 %
12.02.2015 08:15 -1,0 C 76 % 1025,5 hPa 0,0 l/m 1,4 km/h (1 Bft) O-SO 105 0 min 0,000 mm 0,0 UV-I 17 W/m -4,7 C -1,0 C 4,0 km/h (1 Bft) 0,00 %
12.02.2015 08:30 -0,9 C 76 % 1025,8 hPa 0,0 l/m 1,4 km/h (1 Bft) O-SO 104 0 min 0,000 mm 0,0 UV-I 29 W/m -4,6 C -0,9 C 4,0 km/h (1 Bft) 0,00 %
12.02.2015 08:45 -0,8 C 76 % 1025,7 hPa 0,0 l/m 1,8 km/h (1 Bft) O-SO 105 0 min 0,000 mm 1,0 UV-I 37 W/m -4,5 C -0,8 C 4,0 km/h (1 Bft) 0,00 %
12.02.2015 09:00 -0,8 C 76 % 1025,8 hPa 0,0 l/m 1,4 km/h (1 Bft) O-NO 70 0 min 0,000 mm 1,0 UV-I 46 W/m -4,5 C -0,8 C 4,0 km/h (1 Bft) 0,00 %
12.02.2015 09:15 -0,8 C 75 % 1025,7 hPa 0,0 l/m 0,0 km/h (0 Bft) N 354 0 min 0,000 mm 1,0 UV-I 52 W/m -4,7 C -0,8 C 0,0 km/h (0 Bft) 0,00 %
12.02.2015 09:30 -0,5 C 74 % 1025,7 hPa 0,0 l/m 0,0 km/h (0 Bft) O 88 0 min 0,000 mm 1,0 UV-I 57 W/m -4,5 C -0,5 C 0,0 km/h (0 Bft) 0,00 %
12.02.2015 09:45 -0,5 C 74 % 1025,7 hPa 0,0 l/m 0,0 km/h (0 Bft) S 177 0 min 0,000 mm 1,0 UV-I 73 W/m -4,5 C -0,5 C 0,0 km/h (0 Bft) 0,00 %
12.02.2015 10:00 -0,4 C 74 % 1025,7 hPa 0,0 l/m 0,4 km/h (0 Bft) O-SO 120 0 min 0,000 mm 1,0 UV-I 81 W/m -4,5 C -0,4 C 4,0 km/h (1 Bft) 0,00 %
12.02.2015 10:15 -0,4 C 74 % 1025,7 hPa 0,0 l/m 0,0 km/h (0 Bft) O-SO 118 0 min 0,000 mm 1,0 UV-I 95 W/m -4,5 C -0,4 C 0,0 km/h (0 Bft) 0,00 %
12.02.2015 10:30 -0,3 C 74 % 1026,0 hPa 0,0 l/m 0,0 km/h (0 Bft) O-NO 61 0 min 0,000 mm 1,0 UV-I 98 W/m -4,4 C -0,3 C 0,0 km/h (0 Bft) 0,00 %
12.02.2015 10:45 -0,1 C 73 % 1025,8 hPa 0,0 l/m 0,4 km/h (0 Bft) SO 129 0 min 0,000 mm 1,0 UV-I 106 W/m -4,3 C -0,1 C 4,0 km/h (1 Bft) 0,00 %
12.02.2015 11:00 0,0 C 72 % 1025,6 hPa 0,0 l/m 0,0 km/h (0 Bft) SO 129 0 min 0,000 mm 1,0 UV-I 114 W/m -4,4 C 0,0 C 0,0 km/h (0 Bft) 0,00 %
12.02.2015 11:15 0,1 C 73 % 1025,5 hPa 0,0 l/m 0,0 km/h (0 Bft) SO 144 0 min 0,000 mm 1,0 UV-I 119 W/m -4,2 C 0,1 C 0,0 km/h (0 Bft) 0,00 %
12.02.2015 11:30 -0,2 C 74 % 1025,5 hPa 0,0 l/m 0,4 km/h (0 Bft) NO 52 0 min 0,000 mm 1,0 UV-I 113 W/m -4,3 C -0,2 C 4,0 km/h (1 Bft) 0,00 %
12.02.2015 11:45 -0,1 C 74 % 1025,5 hPa 0,0 l/m 2,9 km/h (1 Bft) O-SO 117 0 min 0,000 mm 1,0 UV-I 112 W/m -4,2 C -0,1 C 4,0 km/h (1 Bft) 0,00 %
12.02.2015 12:00 0,1 C 74 % 1025,2 hPa 0,0 l/m 0,0 km/h (0 Bft) S-SO 158 0 min 0,000 mm 1,0 UV-I 111 W/m -4,0 C 0,1 C 0,0 km/h (0 Bft) 0,00 %
12.02.2015 12:15 0,1 C 73 % 1025,1 hPa 0,0 l/m 1,4 km/h (1 Bft) S-SO 154 0 min 0,000 mm 1,0 UV-I 120 W/m -4,2 C 0,1 C 4,0 km/h (1 Bft) 0,00 %
12.02.2015 12:30 0,2 C 73 % 1025,1 hPa 0,0 l/m 0,0 km/h (0 Bft) O-SO 114 0 min 0,000 mm 1,0 UV-I 137 W/m -4,1 C 0,2 C 0,0 km/h (0 Bft) 0,00 %
12.02.2015 12:45 0,3 C 73 % 1024,9 hPa 0,0 l/m 1,8 km/h (1 Bft) O-SO 109 0 min 0,000 mm 1,0 UV-I 126 W/m -4,0 C 0,3 C 4,0 km/h (1 Bft) 0,00 %
12.02.2015 13:00 0,3 C 73 % 1024,9 hPa 0,0 l/m 0,0 km/h (0 Bft) N-NO 29 0 min 0,000 mm 1,0 UV-I 126 W/m -4,0 C 0,3 C 0,0 km/h (0 Bft) 0,00 %
12.02.2015 13:15 0,3 C 73 % 1024,8 hPa 0,0 l/m 3,2 km/h (1 Bft) O-SO 116 0 min 0,000 mm 1,0 UV-I 117 W/m -4,0 C 0,3 C 4,0 km/h (1 Bft) 0,00 %
12.02.2015 13:30 0,0 C 73 % 1024,6 hPa 0,0 l/m 1,4 km/h (1 Bft) O 88 0 min 0,000 mm 1,0 UV-I 113 W/m -4,2 C 0,0 C 4,0 km/h (1 Bft) 0,00 %
12.02.2015 13:45 0,2 C 71 % 1024,7 hPa 0,0 l/m 0,0 km/h (0 Bft) O-SO 113 0 min 0,000 mm 1,0 UV-I 125 W/m -4,4 C 0,2 C 0,0 km/h (0 Bft) 0,00 %
12.02.2015 14:00 0,3 C 71 % 1024,4 hPa 0,0 l/m 0,0 km/h (0 Bft) SO 143 0 min 0,000 mm 1,0 UV-I 115 W/m -4,3 C 0,3 C 0,0 km/h (0 Bft) 0,00 %
12.02.2015 14:15 0,4 C 71 % 1024,3 hPa 0,0 l/m 0,0 km/h (0 Bft) S-SW 194 0 min 0,000 mm 1,0 UV-I 110 W/m -4,2 C 0,4 C 0,0 km/h (0 Bft) 0,00 %
12.02.2015 14:30 0,1 C 73 % 1024,6 hPa 0,0 l/m 0,0 km/h (0 Bft) S 191 0 min 0,000 mm 1,0 UV-I 95 W/m -4,2 C 0,1 C 0,0 km/h (0 Bft) 0,00 %
12.02.2015 14:45 0,0 C 73 % 1024,4 hPa 0,0 l/m 0,0 km/h (0 Bft) O-NO 59 0 min 0,000 mm 1,0 UV-I 79 W/m -4,2 C 0,0 C 0,0 km/h (0 Bft) 0,00 %
12.02.2015 15:00 -0,1 C 74 % 1024,5 hPa 0,0 l/m 5,4 km/h (1 Bft) O-SO 108 0 min 0,000 mm 1,0 UV-I 72 W/m -4,2 C -0,1 C 7,9 km/h (2 Bft) 0,00 %
12.02.2015 15:15 0,0 C 74 % 1024,4 hPa 0,0 l/m 2,2 km/h (1 Bft) S-SO 162 0 min 0,000 mm 1,0 UV-I 66 W/m -4,1 C 0,0 C 4,0 km/h (1 Bft) 0,00 %
12.02.2015 15:30 0,2 C 73 % 1024,5 hPa 0,0 l/m 0,0 km/h (0 Bft) W-SW 250 0 min 0,000 mm 1,0 UV-I 57 W/m -4,1 C 0,2 C 0,0 km/h (0 Bft) 0,00 %
12.02.2015 15:45 0,2 C 73 % 1024,4 hPa 0,0 l/m 2,2 km/h (1 Bft) SO 139 0 min 0,000 mm 1,0 UV-I 43 W/m -4,1 C 0,2 C 4,0 km/h (1 Bft) 0,00 %
12.02.2015 16:00 0,1 C 73 % 1024,2 hPa 0,0 l/m 0,0 km/h (0 Bft) S 184 0 min 0,000 mm 0,0 UV-I 35 W/m -4,2 C 0,1 C 0,0 km/h (0 Bft) 0,00 %
12.02.2015 16:15 0,2 C 73 % 1024,2 hPa 0,0 l/m 0,7 km/h (0 Bft) O-SO 112 0 min 0,000 mm 0,0 UV-I 33 W/m -4,1 C 0,2 C 4,0 km/h (1 Bft) 0,00 %
12.02.2015 16:30 0,2 C 73 % 1024,2 hPa 0,0 l/m 0,0 km/h (0 Bft) S-SW 195 0 min 0,000 mm 0,0 UV-I 25 W/m -4,1 C 0,2 C 0,0 km/h (0 Bft) 0,00 %
12.02.2015 16:45 0,1 C 73 % 1024,3 hPa 0,0 l/m 0,0 km/h (0 Bft) S 187 0 min 0,000 mm 0,0 UV-I 12 W/m -4,2 C 0,1 C 0,0 km/h (0 Bft) 0,00 %
12.02.2015 17:00 0,1 C 73 % 1024,2 hPa 0,0 l/m 0,0 km/h (0 Bft) S-SW 192 0 min 0,000 mm 0,0 UV-I 2 W/m -4,2 C 0,1 C 0,0 km/h (0 Bft) 0,00 %
12.02.2015 17:15 0,0 C 73 % 1024,2 hPa 0,0 l/m 0,0 km/h (0 Bft) S-SW 198 0 min 0,000 mm 0,0 UV-I 0 W/m -4,2 C 0,0 C 0,0 km/h (0 Bft) 0,00 %
12.02.2015 17:30 -0,1 C 74 % 1024,4 hPa 0,0 l/m 0,0 km/h (0 Bft) S 181 0 min 0,000 mm 0,0 UV-I 0 W/m -4,2 C -0,1 C 0,0 km/h (0 Bft) 0,00 %
12.02.2015 17:45 0,0 C 75 % 1024,5 hPa 0,0 l/m 0,0 km/h (0 Bft) W-SW 250 0 min 0,000 mm 0,0 UV-I 0 W/m -3,9 C 0,0 C 0,0 km/h (0 Bft) 0,00 %
12.02.2015 18:00 0,0 C 75 % 1024,6 hPa 0,0 l/m 0,0 km/h (0 Bft) S-SW 192 0 min 0,000 mm 0,0 UV-I 0 W/m -3,9 C 0,0 C 0,0 km/h (0 Bft) 0,00 %
12.02.2015 18:15 -0,1 C 75 % 1024,7 hPa 0,0 l/m 0,0 km/h (0 Bft) S 177 0 min 0,000 mm 0,0 UV-I 0 W/m -4,0 C -0,1 C 0,0 km/h (0 Bft) 0,00 %
12.02.2015 18:30 -0,1 C 75 % 1024,9 hPa 0,0 l/m 0,0 km/h (0 Bft) S-SW 213 0 min 0,000 mm 0,0 UV-I 0 W/m -4,0 C -0,1 C 0,0 km/h (0 Bft) 0,00 %
12.02.2015 18:45 -0,3 C 75 % 1024,8 hPa 0,0 l/m 0,0 km/h (0 Bft) S-SW 202 0 min 0,000 mm 0,0 UV-I 0 W/m -4,2 C -0,3 C 0,0 km/h (0 Bft) 0,00 %
12.02.2015 19:00 -0,4 C 75 % 1025,1 hPa 0,0 l/m 0,0 km/h (0 Bft) S-SW 202 0 min 0,000 mm 0,0 UV-I 0 W/m -4,3 C -0,4 C 0,0 km/h (0 Bft) 0,00 %
12.02.2015 19:15 -0,4 C 76 % 1024,9 hPa 0,0 l/m 0,0 km/h (0 Bft) S-SW 206 0 min 0,000 mm 0,0 UV-I 0 W/m -4,1 C -0,4 C 0,0 km/h (0 Bft) 0,00 %
12.02.2015 19:30 -0,5 C 76 % 1024,9 hPa 0,0 l/m 0,0 km/h (0 Bft) S-SW 196 0 min 0,000 mm 0,0 UV-I 0 W/m -4,2 C -0,5 C 0,0 km/h (0 Bft) 0,00 %
12.02.2015 19:45 -0,5 C 78 % 1025,0 hPa 0,0 l/m 0,0 km/h (0 Bft) S-SW 194 0 min 0,000 mm 0,0 UV-I 0 W/m -3,9 C -0,5 C 0,0 km/h (0 Bft) 0,00 %
12.02.2015 20:00 -0,5 C 77 % 1025,0 hPa 0,0 l/m 0,0 km/h (0 Bft) S-SW 211 0 min 0,000 mm 0,0 UV-I 0 W/m -4,0 C -0,5 C 0,0 km/h (0 Bft) 0,00 %
12.02.2015 20:15 -0,5 C 78 % 1024,8 hPa 0,0 l/m 0,0 km/h (0 Bft) S-SW 204 0 min 0,000 mm 0,0 UV-I 0 W/m -3,9 C -0,5 C 0,0 km/h (0 Bft) 0,00 %
12.02.2015 20:30 -0,6 C 79 % 1024,6 hPa 0,0 l/m 0,0 km/h (0 Bft) S-SW 209 0 min 0,000 mm 0,0 UV-I 0 W/m -3,8 C -0,6 C 0,0 km/h (0 Bft) 0,00 %
12.02.2015 20:45 -0,6 C 79 % 1024,8 hPa 0,0 l/m 0,0 km/h (0 Bft) S-SW 203 0 min 0,000 mm 0,0 UV-I 0 W/m -3,8 C -0,6 C 0,0 km/h (0 Bft) 0,00 %
12.02.2015 21:00 -0,6 C 79 % 1024,8 hPa 0,0 l/m 0,0 km/h (0 Bft) S-SW 204 0 min 0,000 mm 0,0 UV-I 0 W/m -3,8 C -0,6 C 0,0 km/h (0 Bft) 0,00 %
12.02.2015 21:15 -0,6 C 79 % 1024,8 hPa 0,0 l/m 0,0 km/h (0 Bft) S-SW 204 0 min 0,000 mm 0,0 UV-I 0 W/m -3,8 C -0,6 C 0,0 km/h (0 Bft) 0,00 %
12.02.2015 21:30 -0,6 C 79 % 1024,9 hPa 0,0 l/m 0,0 km/h (0 Bft) S-SW 204 0 min 0,000 mm 0,0 UV-I 0 W/m -3,8 C -0,6 C 0,0 km/h (0 Bft) 0,00 %
12.02.2015 21:45 -0,6 C 80 % 1024,8 hPa 0,0 l/m 0,0 km/h (0 Bft) S 182 0 min 0,000 mm 0,0 UV-I 0 W/m -3,6 C -0,6 C 0,0 km/h (0 Bft) 0,00 %
12.02.2015 22:00 -0,5 C 79 % 1024,8 hPa 0,0 l/m 2,2 km/h (1 Bft) SO 130 0 min 0,000 mm 0,0 UV-I 0 W/m -3,7 C -0,5 C 4,0 km/h (1 Bft) 0,00 %
12.02.2015 22:15 -0,5 C 79 % 1024,7 hPa 0,0 l/m 0,0 km/h (0 Bft) S 174 0 min 0,000 mm 0,0 UV-I 0 W/m -3,7 C -0,5 C 0,0 km/h (0 Bft) 0,00 %
12.02.2015 22:30 -0,5 C 79 % 1024,6 hPa 0,0 l/m 0,0 km/h (0 Bft) S-SW 208 0 min 0,000 mm 0,0 UV-I 0 W/m -3,7 C -0,5 C 0,0 km/h (0 Bft) 0,00 %
12.02.2015 22:45 -0,5 C 80 % 1024,8 hPa 0,0 l/m 0,0 km/h (0 Bft) SW 217 0 min 0,000 mm 0,0 UV-I 0 W/m -3,5 C -0,5 C 0,0 km/h (0 Bft) 0,00 %
12.02.2015 23:00 -0,6 C 81 % 1024,5 hPa 0,0 l/m 0,0 km/h (0 Bft) SW 217 0 min 0,000 mm 0,0 UV-I 0 W/m -3,4 C -0,6 C 0,0 km/h (0 Bft) 0,00 %
12.02.2015 23:15 -0,9 C 81 % 1024,6 hPa 0,0 l/m 0,0 km/h (0 Bft) S-SW 212 0 min 0,000 mm 0,0 UV-I 0 W/m -3,7 C -0,9 C 0,0 km/h (0 Bft) 0,00 %
12.02.2015 23:30 -1,0 C 82 % 1024,7 hPa 0,0 l/m 0,0 km/h (0 Bft) S 186 0 min 0,000 mm 0,0 UV-I 0 W/m -3,7 C -1,0 C 0,0 km/h (0 Bft) 0,00 %
12.02.2015 23:45 -1,0 C 82 % 1024,6 hPa 0,0 l/m 0,0 km/h (0 Bft) SW 216 0 min 0,000 mm 0,0 UV-I 0 W/m -3,7 C -1,0 C 0,0 km/h (0 Bft) 0,00 %
_ Min-Zeit 07:30 13:45 16:00 - 00:45 - - - - - - 07:45 00:00 00:45 00:00
Minimum _ -1,1 C 71 % 1024,2 hPa - 0,0 km/h (0 Bft) - - - - - - -4,8 C -1,9 C 0,0 km/h (0 Bft) 0,00 %
_ Max-Zeit 14:15 23:30 00:00 00:00 00:00 - - 00:00 00:00 08:45 12:30 23:00 14:15 00:00 00:00
Maximum _ 0,4 C 82 % 1026,6 hPa 0,0 l/m 8,3 km/h
O-SO (2 Bft)
- - 0 min 0,000 mm 1,0 UV-I 137 W/m -3,4 C 0,4 C 11,9 km/h
O-SO (2 Bft)
0,00 %
Durchschnitt _ -0,3 C 76 % 1025,1 hPa #0,0 l/m 0,9 km/h (0 Bft) O-SO - #0 min. #0,000 mm 1,0 UV-I 76 W/m -4,0 C -0,3 C 2,0 km/h (1 Bft) 0,00 %